Simultaneous Nadir Overpasses (SNOs) Predictions

Prediction of SNOs between NOAA-19 and TERRA Satellite Orbit:

Table of predicted SNOs for the next 14.0 days since TLE Epoch: 5/28/2017
Index Date (NOAA-19) Time (NOAA-19) Lat,Lon (NOAA-19) SZA (NOAA-19 ) Date (TERRA) Time (TERRA) Lat,Lon (TERRA) SZA (TERRA ) Distance(km) Time Diff (sec)
1 05/30/2017 17:07:01 75.45, -65.69 53.84 05/30/2017 17:07:36 75.44, -65.77 53.84 2.54 35
2 05/30/2017 17:58:05 -75.41, 101.67 126.20 05/30/2017 17:57:04 -75.42, 101.81 126.20 3.94 61
3 06/01/2017 22:40:55 -75.47, 30.81 126.45 06/01/2017 22:41:22 -75.48, 30.92 126.43 3.02 27
4 06/01/2017 23:31:50 75.38,-161.62 53.48 06/01/2017 23:30:49 75.41,-161.65 53.49 3.02 61
5 06/04/2017 04:14:41 75.49, 127.40 53.29 06/04/2017 04:15:08 75.46, 127.40 53.27 3.20 27
6 06/04/2017 05:05:43 -75.38, -65.02 126.80 06/04/2017 05:04:37 -75.39, -65.15 126.81 3.66 66
7 06/06/2017 09:48:33 -75.46,-135.91 126.98 06/06/2017 09:48:56 -75.47,-136.01 126.97 3.34 23
8 06/06/2017 10:39:30 75.43, 31.46 53.00 06/06/2017 10:38:22 75.44, 31.56 53.00 3.54 68
9 06/08/2017 15:22:20 75.49, -39.39 52.84 06/08/2017 15:22:42 75.50, -39.36 52.86 2.00 22
10 06/08/2017 16:13:22 -75.42, 128.08 127.22 06/08/2017 16:12:11 -75.44, 128.10 127.21 2.90 71
11 06/10/2017 20:56:12 -75.50, 57.17 127.33 06/10/2017 20:56:32 -75.48, 57.13 127.34 2.07 20




NCC Satellite Simultaneous Nadir Overpasses (SNOs) Prediction Service
